This is the latest recevied weather packets stored in our database for station/object KD4VIF. If no packets are shown the sender has not sent any weather packets the latest 10 day(s).
| Time | Temp. | Humidity | Pressure | Rain* | Wind** | Luminosity | Snow |
|---|---|---|---|---|---|---|---|
| 1777945895 | 19.44° C | 100% | 1014.8 hPa | 0 mm | 0 m/s | - | - |
| 1777945597 | 18.33° C | 100% | 1014.7 hPa | 0 mm | 0.45 m/s, 205° | - | - |
| 1777945295 | 18.33° C | 100% | 1014.6 hPa | 0 mm | 0 m/s | - | - |
| 1777944996 | 17.78° C | 100% | 1014.5 hPa | 0 mm | 0 m/s | - | - |
| 1777944695 | 18.33° C | 100% | 1014.4 hPa | 0 mm | 0 m/s | - | - |
| 1777944396 | 18.33° C | 100% | 1014.3 hPa | 0 mm | 0 m/s | - | - |
| 1777944096 | 18.33° C | 100% | 1014.3 hPa | 0 mm | 0 m/s | - | - |
| 1777943796 | 18.33° C | 100% | 1014.2 hPa | 0 mm | 0 m/s | - | - |
| 1777942896 | 18.89° C | 100% | 1014.1 hPa | 0 mm | 0 m/s | - | - |
| 1777942595 | 18.89° C | 100% | 1014 hPa | 0 mm | 0 m/s | - | - |
| 1777941396 | 19.44° C | 100% | 1013.9 hPa | 0 mm | 0 m/s | - | - |
| 1777923395 | 25° C | 100% | 1013.7 hPa | 0 mm | 0.89 m/s, 272° | - | - |
| 1777923095 | 25° C | 100% | 1013.8 hPa | 0 mm | 0.45 m/s, 258° | - | - |
| 1777922795 | 25° C | 100% | 1013.9 hPa | 0 mm | 0 m/s | - | - |
| 1777922496 | 25° C | 100% | 1013.9 hPa | 0 mm | 0.45 m/s, 295° | - | - |
| 1777922194 | 24.44° C | 100% | 1014 hPa | 0 mm | 0 m/s | - | - |
| 1777921898 | 24.44° C | 100% | 1014 hPa | 0 mm | 0.89 m/s, 302° | - | - |
| 1777920994 | 24.44° C | 100% | 1014.3 hPa | 0 mm | 1.34 m/s, 296° | - | - |
| 1777920396 | 24.44° C | 100% | 1014.4 hPa | 0 mm | 0 m/s | - | - |
| 1777919795 | 23.89° C | 100% | 1014.5 hPa | 0 mm | 0 m/s | - | - |
| 1777919195 | 23.89° C | 100% | 1014.6 hPa | 0 mm | 0.89 m/s, 223° | - | - |
| 1777918894 | 23.89° C | 100% | 1014.7 hPa | 0 mm | 0 m/s | - | - |
| 1777917995 | 23.89° C | 100% | 1014.7 hPa | 0 mm | 1.34 m/s, 312° | - | - |
| 1777917394 | 23.33° C | 100% | 1014.8 hPa | 0 mm | 0.89 m/s, 264° | - | - |
| 1777917095 | 23.33° C | 100% | 1014.9 hPa | 0 mm | 0 m/s | - | - |
* Rain latest hour (hover to see other rain measurements)
** Current wind speed in m/s (hover to see current wind gust speed)